Terminal Aerodrome Forecast
Issued by NWS Sterling, VA

Current Version | Previous Version | Text Only | Print | Product List | Glossary Off
Versions: 1 2 3 4 5 6 7 8 9 10 11 12 13 14 15 16 17 18 19 20 21

000
FTUS41 KLWX 232320
TAFDCA
TAF
KDCA 232320Z 2400/2424 31008KT P6SM BKN060
     FM240700 31009KT P6SM FEW060 SCT250
     FM241400 31015G25KT P6SM FEW250=

USA.gov is the U.S. government's official web portal to all federal, state and local government web resources and services.